Bradshaw AFB, HI

2:17 PM HST on November 20, 2019 (GMT -1000)
Bradshaw Army Air Field

Weather History for PHSF - September, 2019

Change the Weather History Date:

Tuesday, September 24, 2019

  Actual Average Record
Temperature  
Mean Temperature 60 °F -  
Max Temperature 71 °F 69 °F 77 °F (2001)
Min Temperature 49 °F 49 °F 44 °F (2017)
Degree Days  
Heating Degree Days 5    
Growing Degree Days 10 (Base 50)    
Moisture  
Dew Point 56 °F    
Average Humidity 85    
Maximum Humidity 95    
Minimum Humidity 64    
Precipitation  
Precipitation 0.01 in - - ()
Sea Level Pressure  
Sea Level Pressure 29.96 in    
Wind  
Wind Speed 5 mph (WSW)    
Max Wind Speed 16 mph    
Max Gust Speed 22 mph    
Visibility 8 miles    
Events      
Averages and records for this station are not official NWS values.
T = Trace of Precipitation, MM = Missing Value Source: NWS Daily Summary

Daily Weather History Graph

Daily Weather History Graph

Search for Another Location

Airport or City:

Astronomy

Sep. 24, 2019 Rise Set
Actual Time 6:11 AM HST 6:16 PM HST
Civil Twilight 5:49 AM HST 6:38 PM HST
Nautical Twilight 5:23 AM HST 7:04 PM HST
Astronomical Twilight 4:58 AM HST 7:29 PM HST
Moon 1:55 AM HST (9/24) 3:28 PM HST (9/24)
Length of Visible Light 12h 49m
Length of Day
12h 05m
Waning Crescent, 21% of the Moon is Illuminated
Sep 24
Waning Crescent
Sep 28
New
Oct 5
First Quarter
Oct 13
Full
Oct 21
Last Quarter

Hourly Weather History & Observations

Time (HST) Temp. Dew Point Humidity Pressure Visibility Wind Dir Wind Speed Gust Speed Precip Events Conditions
12:58 AM 54.1 °F 52.7 °F 95% 30.00 in 5.0 mi SSE 5.8 mph - N/A   Clear
1:58 AM 53.4 °F 51.1 °F 92% 29.99 in 6.0 mi SE 6.9 mph - N/A   Clear
2:58 AM 52.3 °F 49.1 °F 89% 29.97 in 5.0 mi SSE 6.9 mph - N/A   Clear
3:58 AM 50.4 °F 47.7 °F 90% 29.97 in 4.0 mi South 4.6 mph - 0.01 in   Clear
4:58 AM 50.2 °F 46.6 °F 87% 29.97 in 4.0 mi SSE 4.6 mph - N/A   Clear
5:58 AM 49.3 °F 45.3 °F 86% 29.99 in 4.0 mi South 6.9 mph - N/A   Haze
6:23 AM 50.0 °F 46.4 °F 87% 29.99 in 2.8 mi SSE 8.1 mph - N/A   Clear
6:58 AM 50.9 °F 46.0 °F 83% 30.00 in 2.5 mi SSE 6.9 mph - N/A   Haze
7:23 AM 57.2 °F 48.2 °F 72% 29.99 in 3.0 mi SSE 8.1 mph - N/A   Haze
7:58 AM 61.9 °F 53.2 °F 73% 29.98 in 4.0 mi SSE 4.6 mph - N/A   Haze
8:58 AM 66.0 °F 53.4 °F 64% 29.97 in 10.0 mi WSW 3.5 mph - N/A   Clear
9:08 AM 66.2 °F 55.4 °F 68% 29.97 in 2.5 mi WNW 4.6 mph - N/A   Haze
10:28 AM 69.8 °F 57.2 °F 64% 29.98 in 3.0 mi NW 6.9 mph - N/A   Haze
11:58 AM 71.2 °F 59.2 °F 66% 29.94 in 5.0 mi North 6.9 mph - N/A   Haze
12:58 PM 71.8 °F 62.1 °F 71% 29.92 in 8.0 mi NW 16.1 mph 19.6 mph N/A   Scattered Clouds
1:31 PM 71.6 °F 62.6 °F 73% 29.91 in 10.0 mi WNW 13.8 mph - N/A   Partly Cloudy
1:58 PM 70.9 °F 61.3 °F 72% 29.90 in 10.0 mi NW 16.1 mph 21.9 mph N/A   Partly Cloudy
2:58 PM 70.9 °F 58.8 °F 66% 29.90 in 10.0 mi NW 10.4 mph - N/A   Scattered Clouds
3:58 PM 69.4 °F 60.4 °F 73% 29.90 in 10.0 mi NNW 9.2 mph - N/A   Clear
4:58 PM 66.9 °F 60.1 °F 79% 29.93 in 10.0 mi NW 9.2 mph - N/A   Mostly Cloudy
5:08 PM 64.4 °F 60.8 °F 88% 29.94 in 10.0 mi NNW 9.2 mph - N/A   Overcast
5:13 PM 64.4 °F 60.8 °F 88% 29.94 in 10.0 mi NW 6.9 mph - N/A   Overcast
5:38 PM 62.6 °F 59.0 °F 88% 29.96 in 10.0 mi NW 6.9 mph - N/A   Overcast
5:58 PM 61.5 °F 59.4 °F 93% 29.97 in 10.0 mi Calm Calm - N/A   Overcast
6:03 PM 60.8 °F 59.0 °F 94% 29.97 in 10.0 mi Calm Calm - N/A   Overcast
6:08 PM 60.8 °F 59.0 °F 94% 29.97 in 10.0 mi Calm Calm - N/A   Overcast
6:13 PM 60.8 °F 59.0 °F 94% 29.97 in 10.0 mi Calm Calm - N/A   Overcast
6:43 PM 60.8 °F 59.0 °F 94% 29.97 in 10.0 mi WNW 3.5 mph - N/A   Overcast
6:58 PM 60.8 °F 59.0 °F 94% 29.97 in 10.0 mi Calm Calm - N/A   Overcast
7:03 PM 60.8 °F 59.0 °F 94% 29.97 in 10.0 mi Calm Calm - N/A   Overcast
7:13 PM 60.8 °F 59.0 °F 94% 29.97 in 10.0 mi Calm Calm - N/A   Overcast
7:18 PM 60.8 °F 59.0 °F 94% 29.97 in 10.0 mi Calm Calm - N/A   Overcast
7:33 PM 60.8 °F 59.0 °F 94% 29.96 in 10.0 mi Calm Calm - N/A   Overcast
7:53 PM 60.8 °F 59.0 °F 94% 29.96 in 10.0 mi Calm Calm - N/A   Overcast
7:58 PM 60.8 °F 59.0 °F 94% 29.94 in 10.0 mi Calm Calm - N/A   Overcast
8:18 PM 60.8 °F 59.0 °F 94% 29.95 in 10.0 mi Calm Calm - N/A   Overcast
8:33 PM 60.8 °F 59.0 °F 94% 29.96 in 10.0 mi WSW 3.5 mph - N/A   Overcast
8:58 PM 59.0 °F 55.4 °F 88% 29.96 in 10.0 mi Calm Calm - N/A   Overcast
9:23 PM 59.0 °F 53.6 °F 82% 29.95 in 10.0 mi SW 3.5 mph - N/A   Overcast
9:53 PM 59.0 °F 53.6 °F 82% 29.95 in 10.0 mi Calm Calm - N/A   Overcast
9:58 PM 59.2 °F 54.5 °F 84% 29.95 in 10.0 mi Calm Calm - N/A   Overcast
10:33 PM 59.0 °F 55.4 °F 88% 29.95 in 10.0 mi Calm Calm - N/A   Overcast
10:48 PM 59.0 °F 55.4 °F 88% 29.94 in 10.0 mi Calm Calm - N/A   Overcast
10:58 PM 57.2 °F 55.4 °F 94% 29.94 in 10.0 mi Calm Calm - N/A   Overcast
11:28 PM 57.2 °F 55.4 °F 94% 29.94 in 10.0 mi Calm Calm - N/A   Scattered Clouds
11:58 PM 55.2 °F 53.8 °F 95% 29.94 in 10.0 mi Calm Calm - N/A   Scattered Clouds